Location: Frankfurt+am+Main
(50.1100°N, 8.4815°E)
Time: 05:32:46
(UTC+01:00)

ISS - Visible Passes

Search period start: 21 November 2017 00:00
Search period end: 01 December 2017 00:00
Orbit: 402 x 407 km, 51.6° (Epoch: 21 November)

Date Brightness Start Highest point End Pass type
(mag) Time Alt. Az. Time Alt. Az. Time Alt. Az.
27 Nov -0.9 19:07:39 10° SSW 19:07:53 11° SSW 19:07:53 11° SSW visible
28 Nov -1.7 18:16:11 10° S 18:17:52 15° SSE 18:17:52 15° SSE visible
29 Nov -1.9 18:58:48 10° SW 19:00:27 25° SSW 19:00:27 25° SSW visible
30 Nov -2.6 18:06:48 10° SSW 18:09:40 28° SSE 18:10:17 26° SE visible
30 Nov -0.4 19:42:38 10° WSW 19:42:56 12° WSW 19:42:56 12° WSW visible
